This is the latest recevied weather packets stored in our database for station/object W4OTS. If no packets are shown the sender has not sent any weather packets the latest 10 day(s).
| Time | Temp. | Humidity | Pressure | Rain* | Wind** | Luminosity | Snow |
|---|---|---|---|---|---|---|---|
| 1777567112 | 22.22° C | 60% | 1012.6 hPa | 0 mm | - | 731 W/m² | - |
| 1777566810 | 22.22° C | 55% | 1012.7 hPa | 0 mm | - | 727 W/m² | - |
| 1777566507 | 22.22° C | 58% | 1012.6 hPa | 0 mm | - | 722 W/m² | - |
| 1777566205 | 22.22° C | 57% | 1012.7 hPa | 0 mm | - | 747 W/m² | - |
| 1777565901 | 22.78° C | 54% | 1012.7 hPa | 0 mm | - | 758 W/m² | - |
| 1777565597 | 21.67° C | 59% | 1012.8 hPa | 0 mm | - | 776 W/m² | - |
| 1777565294 | 22.22° C | 57% | 1013.1 hPa | 0 mm | - | 638 W/m² | - |
| 1777564989 | 22.78° C | 59% | 1013 hPa | 0 mm | - | 636 W/m² | - |
| 1777564685 | 22.22° C | 58% | 1013 hPa | 0 mm | - | 691 W/m² | - |
| 1777564381 | 21.67° C | 59% | 1013 hPa | 0 mm | - | 714 W/m² | - |
| 1777564076 | 21.67° C | 61% | 1012.8 hPa | 0 mm | - | 709 W/m² | - |
| 1777563773 | 21.11° C | 62% | 1012.9 hPa | 0 mm | - | 776 W/m² | - |
| 1777563469 | 21.67° C | 63% | 1013 hPa | 0 mm | - | 678 W/m² | - |
| 1777563168 | 21.11° C | 63% | 1013 hPa | 0 mm | - | 761 W/m² | - |
| 1777562865 | 21.67° C | 62% | 1013.2 hPa | 0 mm | - | 781 W/m² | - |
| 1777562562 | 21.67° C | 60% | 1013 hPa | 0 mm | - | 797 W/m² | - |
| 1777562260 | 22.22° C | 59% | 1013 hPa | 0 mm | - | 759 W/m² | - |
| 1777561957 | 21.67° C | 59% | 1012.9 hPa | 0 mm | - | 819 W/m² | - |
| 1777561655 | 20.56° C | 63% | 1013.1 hPa | 0 mm | - | 812 W/m² | - |
| 1777561350 | 20.56° C | 64% | 1013.1 hPa | 0 mm | - | 730 W/m² | - |
| 1777561045 | 20.56° C | 65% | 1013.3 hPa | 0 mm | - | 788 W/m² | - |
| 1777560741 | 20.56° C | 69% | 1013.5 hPa | 0 mm | - | 787 W/m² | - |
| 1777560437 | 19.44° C | 65% | 1013.2 hPa | 0 mm | - | 731 W/m² | - |
| 1777560136 | 19.44° C | 67% | 1013.4 hPa | 0 mm | - | 206 W/m² | - |
| 1777559832 | 19.44° C | 69% | 1013.4 hPa | 0 mm | - | 663 W/m² | - |
* Rain latest hour (hover to see other rain measurements)
** Current wind speed in m/s (hover to see current wind gust speed)